Probability
15 14 10 8 8 8 6 3 1 0 1 1 1 1 1 0 0 0 0 1 3 2 1 1 1 1 2 3 7 12 14 13 12 9 4 1 0 0 0 0 0 0 0
12 10 6 3 3 4 3 1 0 0 1 1 1 0 0 0 0 0 0 1 2 2 1 2 2 2 3 4 8 13 15 15 17 14 8 3 1 0 0 0 0 0 0
7 7 4 1 0 0 0 0 0 0 1 1 0 0 0 0 0 0 0 1 1 1 1 1 2 2 3 4 8 12 14 16 19 18 13 7 3 1 0 0 0 0 0
4 5 4 1 0 0 0 0 0 0 0 0 0 0 0 0 0 0 0 0 0 0 0 0 1 1 2 3 6 8 12 17 21 20 16 11 6 2 0 0 0 0 0
2 2 2 1 0 0 0 0 0 0 0 0 0 0 0 0 0 0 0 0 0 0 0 0 0 0 1 3 5 6 13 22 26 25 22 15 9 5 2 0 0 0 0
1 1 0 0 0 0 0 0 0 0 0 0 0 0 0 0 0 0 0 0 0 0 0 0 0 0 1 3 5 7 14 24 31 31 28 20 14 9 5 1 0 0 0
2 1 0 0 0 0 0 0 0 0 0 0 0 0 0 0 0 0 0 0 0 0 0 0 0 0 0 1 3 6 11 21 30 32 29 25 20 14 8 3 1 0 0
3 2 1 0 0 0 0 0 0 0 0 0 0 0 0 0 0 0 0 0 0 0 0 0 0 0 0 0 0 2 7 16 25 28 27 28 26 19 10 5 2 1 1
1 1 0 0 0 0 0 0 0 0 0 0 0 0 0 0 0 0 0 0 0 0 0 0 0 0 0 0 0 0 4 10 18 25 30 32 30 23 13 7 5 3 2
0 0 0 0 0 0 0 0 0 0 0 0 0 0 0 0 0 0 0 0 0 0 0 0 0 0 0 0 0 0 1 4 10 21 33 40 38 29 21 16 16 15 13
0 0 0 0 0 0 0 0 0 0 0 0 0 0 0 0 0 0 0 0 0 0 0 0 0 0 0 0 0 0 0 1 3 11 25 37 41 36 30 29 35 38 34
0 0 0 0 0 0 0 0 0 0 0 0 0 0 0 0 0 0 0 0 0 0 0 0 0 0 0 0 0 0 0 0 0 3 10 20 28 31 30 34 42 47 45
0 0 0 0 0 0 0 0 0 0 0 0 0 0 0 0 0 0 0 0 0 0 0 0 0 0 0 0 0 0 0 0 0 0 2 5 11 17 21 22 27 30 30
0 0 0 0 0 0 0 0 0 0 0 0 0 0 0 0 0 0 0 0 0 0 0 0 0 0 0 0 0 0 0 0 0 0 0 0 2 6 8 8 8 9 9
0 0 0 0 0 0 0 0 0 0 0 0 0 0 0 0 0 0 0 0 0 0 0 0 0 0 0 0 0 0 0 0 0 0 0 0 0 1 1 1 1 1 1
0 0 0 0 0 0 0 0 0 0 0 0 0 0 0 0 0 0 0 0 0 0 0 0 0 0 0 0 0 0 0 0 0 0 0 0 0 0 0 0 0 0 0
0 0 0 0 0 0 0 0 0 0 0 0 0 0 0 0 0 0 0 0 0 0 0 0 0 0 0 0 0 0 0 0 0 0 0 0 0 0 0 0 0 0 0
0 0 0 0 0 0 0 0 0 0 0 0 0 0 0 0 0 0 0 0 0 0 0 0 0 0 0 0 0 0 0 0 0 0 0 0 0 0 0 0 0 0 0
0 0 0 0 0 0 0 0 0 0 0 0 0 0 0 0 0 0 0 0 0 0 0 0 0 0 0 0 0 0 0 0 0 0 0 0 0 0 0 0 0 0 0
0 0 0 0 0 0 0 0 0 0 0 0 0 0 0 0 0 0 0 0 0 0 0 0 0 0 0 0 0 0 0 0 0 0 0 0 0 0 0 0 0 0 0
0 0 0 0 0 0 0 0 0 0 0 0 0 0 0 0 0 0 0 0 0 0 0 0 0 0 0 0 0 0 0 0 0 0 0 0 0 0 0 0 0 0 0
0 0 0 0 0 0 0 0 0 0 0 0 0 0 0 0 0 0 0 0 0 0 0 0 0 0 0 0 0 0 0 0 0 0 0 0 0 0 0 0 0 0 0
0 0 0 0 0 0 0 0 0 0 0 0 0 0 0 0 0 0 0 0 0 0 0 0 0 0 0 0 0 0 0 0 0 0 0 0 0 0 0 0 0 0 0
0 0 0 0 0 0 0 0 0 0 0 0 0 0 0 0 0 0 0 0 0 0 0 0 0 0 0 0 0 0 0 0 0 0 0 0 0 0 0 0 0 0 0
0 0 0 0 0 0 0 0 0 0 0 0 0 0 0 0 0 0 0 0 0 0 0 0 0 0 0 0 0 0 0 0 0 0 0 0 0 0 0 0 0 0 0
0 0 0 0 0 0 0 0 0 0 0 0 0 0 0 0 0 0 0 0 0 0 0 0 0 0 0 0 0 0 0 0 0 0 0 0 0 0 0 0 0 0 0
Wind_Speed
7 7 6 6 7 6 6 6 6 8 8 8 7 8 8 9 8 7 6 13 15 14 15 14 13 14 16 18 19 19 19 20 20 19 18 18 17 17 16 16 15 14 13
8 7 7 6 6 6 6 6 6 6 6 5 7 8 8 7 8 8 7 9 14 13 12 12 12 12 14 16 17 18 18 19 20 20 19 19 18 17 18 17 16 15 14
9 8 6 6 5 5 5 4 5 4 4 4 5 6 6 6 7 8 8 6 7 10 11 11 12 12 13 14 15 16 16 18 19 20 20 19 19 18 18 18 18 17 15
9 6 5 5 5 4 4 4 3 3 3 3 3 3 4 5 7 7 6 6 6 6 8 12 13 13 15 15 16 16 15 16 17 19 19 20 20 19 18 18 18 18 17
8 5 4 4 3 3 3 3 2 2 3 3 3 3 3 4 5 6 7 7 7 7 6 8 12 13 16 17 17 16 16 15 17 18 19 20 20 20 19 19 18 18 17
7 5 4 4 4 3 3 3 3 2 2 2 2 2 3 4 4 5 6 6 6 7 7 7 7 8 14 16 16 16 17 16 17 18 19 20 21 20 20 19 19 18 18
6 5 4 4 4 4 4 4 3 3 2 2 1 1 2 3 4 4 4 4 5 5 5 6 6 6 6 11 14 16 17 17 17 17 18 19 19 20 20 20 19 19 19
4 5 5 5 5 3 4 4 3 3 2 3 3 1 2 3 2 1 2 2 3 2 3 4 5 6 6 5 8 14 16 17 17 17 17 17 18 18 19 20 19 19 19
3 3 4 4 5 5 5 5 5 5 3 2 2 3 3 3 2 2 2 1 1 2 2 3 5 6 7 6 7 11 16 16 16 16 15 16 16 16 17 17 18 19 19
5 3 2 3 4 4 5 5 6 4 4 3 2 2 2 3 2 1 2 2 2 3 4 4 5 6 7 6 7 11 14 14 15 15 15 15 16 15 14 14 16 17 18
6 6 4 2 3 4 5 5 5 5 4 4 4 3 2 1 2 2 3 3 3 3 4 6 5 5 6 6 6 9 13 14 13 13 14 14 16 15 14 13 12 12 13
3 5 5 4 4 4 5 6 6 7 6 5 4 4 4 3 4 4 4 3 3 3 4 4 4 4 4 5 7 10 11 12 12 12 12 13 15 15 15 13 12 10 9
2 3 4 4 4 4 5 6 6 7 7 7 6 5 5 4 3 3 3 3 3 3 3 3 2 3 3 3 4 7 8 10 11 11 11 11 13 13 13 12 11 9 8
3 3 3 4 4 5 5 4 6 7 7 8 8 7 5 5 5 5 4 3 2 2 2 3 2 2 3 3 4 5 3 6 8 9 10 10 11 11 11 9 8 7 6
4 4 3 4 4 4 4 4 5 6 7 8 8 8 6 5 5 5 5 4 3 2 2 2 1 2 3 3 5 3 2 1 5 7 8 9 10 11 11 10 10 10 9
5 5 5 4 4 4 3 3 3 5 6 7 6 7 7 5 5 5 5 5 5 4 3 2 1 1 2 2 5 4 5 7 7 9 10 12 13 14 14 14 13 13 13
7 7 6 5 5 5 4 3 3 3 5 5 6 7 9 7 6 6 5 5 6 5 6 3 1 1 1 1 3 4 5 5 6 11 12 14 15 15 15 15 15 15 14
9 8 7 7 7 6 5 4 4 3 4 5 6 6 8 7 8 7 6 7 6 7 6 5 2 2 2 3 4 5 5 6 6 12 14 15 16 17 16 16 16 15 14
10 9 8 8 8 7 6 6 6 5 5 5 5 6 7 7 8 7 7 7 6 6 6 5 3 2 2 3 5 5 7 6 7 10 14 15 16 17 17 16 16 15 15
11 10 10 10 9 8 8 7 6 6 6 5 5 5 6 6 7 8 7 8 7 7 6 5 5 3 3 4 5 5 5 5 5 6 9 11 15 17 17 16 17 17 15
12 11 10 9 9 8 8 8 8 7 6 6 5 6 6 7 9 8 6 7 8 7 6 6 6 5 5 6 6 5 7 7 5 5 7 7 8 9 10 14 16 18 17
11 10 10 10 9 8 10 13 9 7 6 6 6 6 6 7 9 11 12 11 11 9 9 8 7 7 7 7 6 8 9 7 5 4 6 7 6 8 7 7 12 15 16
10 10 10 10 10 10 13 13 13 8 7 7 7 6 6 5 7 7 9 11 12 13 12 10 9 9 9 10 11 11 9 6 6 7 7 7 6 8 7 8 12 13 14
8 8 9 9 9 10 13 13 12 8 8 8 8 8 7 7 6 7 6 7 8 9 12 10 9 9 9 10 11 11 11 9 9 5 3 7 5 6 6 6 10 11 12
8 8 7 9 9 9 11 11 10 5 6 8 8 8 7 8 8 9 8 8 7 7 8 12 11 10 12 15 15 13 13 13 10 4 2 5 6 6 5 5 6 9 10
9 8 8 8 8 8 10 11 9 4 6 6 6 6 8 9 9 9 9 9 9 8 7 7 8 10 13 17 19 16 15 15 13 7 3 5 7 6 5 3 4 5 6
Wind_Direction
236 232 230 227 226 223 229 233 235 232 228 226 224 227 230 230 235 238 244 253 256 250 245 241 238 236 232 228 225 220 215 211 208 208 209 210 210 206 205 205 204 202 199
238 233 231 229 227 222 226 228 230 227 223 223 227 229 232 229 234 239 239 252 257 257 253 249 247 248 242 234 227 222 217 214 210 209 210 211 211 209 208 207 207 206 203
246 235 228 228 226 219 220 222 225 215 211 213 225 228 231 232 233 238 238 240 250 255 256 253 250 249 246 238 231 226 219 215 212 210 210 210 210 210 209 208 208 208 207
246 229 224 226 218 203 199 199 195 195 200 205 217 223 226 230 234 237 237 240 243 252 255 253 248 242 242 240 236 230 223 216 213 211 210 210 210 210 209 209 209 209 208
239 215 215 217 198 187 188 190 175 174 184 198 215 225 229 232 237 241 241 243 244 247 250 254 251 245 243 243 238 232 226 220 215 213 212 212 211 210 209 209 209 209 208
225 203 202 198 180 174 179 181 168 161 172 184 214 236 248 249 248 246 248 251 250 251 252 252 252 251 248 246 240 234 229 224 219 215 214 214 213 210 209 209 209 209 209
214 198 191 182 177 181 187 178 161 166 177 155 144 285 294 264 254 248 245 246 252 254 255 254 250 248 249 244 239 235 232 229 223 217 215 214 214 211 208 208 209 209 210
228 206 191 185 180 174 179 178 165 159 175 169 157 149 304 320 301 257 251 233 246 265 272 274 264 254 249 244 237 233 232 231 227 220 215 213 213 211 208 208 208 209 211
264 235 210 197 188 180 189 191 182 171 175 183 182 161 177 229 289 311 299 282 283 279 285 291 280 270 260 247 240 233 230 227 227 223 216 211 209 209 209 209 209 209 211
354 340 277 232 215 202 198 198 189 180 162 173 193 209 197 179 187 288 305 299 296 279 281 282 282 279 268 255 240 230 228 225 225 224 218 210 203 199 202 206 210 209 210
5 4 350 305 250 230 221 208 191 188 178 173 177 177 183 196 198 206 261 298 302 274 269 273 275 275 272 262 252 240 228 223 222 222 218 210 199 195 196 200 204 206 208
347 358 355 345 308 263 238 224 209 199 193 186 186 185 177 177 188 197 227 256 282 284 283 277 272 278 282 274 262 251 234 222 217 215 212 206 197 193 193 195 196 198 204
314 329 342 336 327 300 264 235 219 213 201 197 197 200 200 202 180 181 205 243 273 292 301 299 286 311 318 314 293 276 249 226 213 206 203 199 193 189 187 187 187 190 198
263 279 305 313 314 313 301 258 231 222 210 209 208 203 203 209 196 191 194 200 255 274 280 288 324 352 351 346 340 316 269 224 203 193 188 182 175 170 166 165 164 161 156
257 262 278 288 295 302 303 283 249 235 219 215 213 210 209 210 202 203 200 195 202 243 277 281 310 4 12 5 1 4 12 146 168 169 164 158 154 147 140 137 135 130 126
250 261 265 268 277 285 289 293 272 250 232 226 217 214 216 214 208 202 201 202 202 210 242 246 253 340 9 18 31 38 60 77 95 118 124 124 123 121 120 119 118 117 114
242 246 252 256 262 266 264 266 274 271 251 241 232 224 226 217 210 204 197 196 202 205 235 251 239 243 135 100 68 64 65 70 83 96 104 108 111 111 111 111 110 109 107
238 237 241 248 255 256 251 249 259 261 261 256 247 240 239 227 220 210 200 201 200 201 216 240 240 218 177 147 114 92 78 75 80 89 96 101 103 103 104 103 102 101 100
236 233 229 236 245 248 247 245 244 246 240 248 251 244 245 237 231 217 209 205 199 195 204 221 229 206 165 146 125 102 94 85 82 87 90 95 99 101 102 102 102 100 98
232 231 227 229 236 243 245 244 242 240 237 236 239 244 245 240 239 229 218 212 197 190 197 213 222 212 182 156 142 133 118 95 89 85 86 93 99 100 104 108 110 108 103
235 228 224 225 228 233 240 238 234 234 233 234 234 235 241 245 244 235 224 214 195 191 194 205 213 205 188 172 160 143 132 116 88 95 101 95 99 98 101 109 112 114 109
239 228 220 220 222 227 232 232 229 231 232 235 241 242 244 251 252 240 229 217 199 193 197 200 208 206 195 178 154 149 144 140 124 128 109 95 96 96 96 103 111 113 110
243 231 224 216 219 227 231 237 240 233 234 236 239 243 250 245 249 247 232 219 210 205 199 198 207 207 190 176 160 158 159 144 130 147 126 101 95 91 91 99 107 108 108
247 236 229 218 216 228 229 233 240 235 234 239 238 237 241 250 249 237 225 218 215 214 213 213 220 210 189 172 165 153 140 114 105 116 117 112 111 99 96 97 102 107 109
253 237 230 221 216 228 231 234 235 222 232 242 241 237 238 248 248 231 218 216 214 219 220 218 214 200 173 160 150 140 140 136 133 124 93 108 124 111 98 93 99 108 114
254 242 232 223 218 226 234 237 232 214 229 239 243 240 237 244 251 229 215 210 211 209 195 192 188 175 165 159 158 158 153 149 143 139 161 125 144 133 114 104 111 118 117